Regional Weather Roundup
Issued by NWS

Home | Current Version | Previous Version | Text Only | Print | Product List | Glossary Off
Versions: 1 2 3 4 5 6 7 8 9 10 11 12 13 14 15 16 17 18 19 20 21 22 23 24 25 26 27 28 29 30 31 32 33 34 35 36 37 38 39 40 41 42 43 44 45 46 47 48 49 50

000
ASUS45 KSLC 050310
RWRUT

UTAH REGIONAL WEATHER ROUNDUP
NATIONAL WEATHER SERVICE SALT LAKE CITY UT
900 PM MDT MON MAY 04 2015

UTZ001>011-023>025-050400-

NORTHERN UTAH

CITY           SKY/WX    TMP DP  RH WIND       PRES   REMARKS
BRIGHAM CITY   CLOUDY    65  40  40 N7        29.86S
HILL AFB       NOT AVBL
LOGAN          CLEAR     60  47  61 S9        29.88R
OGDEN          CLOUDY    62  42  47 S6        29.86S
PROVO AIRPORT  CLOUDY    64  43  45 CALM      29.88R
SALT LAKE CITY CLOUDY    68  41  37 E7        29.86R
VERNAL         CLOUDY    60  39  45 NW7       29.93R
WENDOVER       CLOUDY    68  36  30 N17G25    29.86R
HEBER CITY     CLOUDY    52  41  66 CALM      29.94R
WEST JORDAN    CLOUDY    63  48  59 NW5       29.88R

$$

UTZ012>022-026-027-050400-

SOUTHERN/CENTRAL UTAH

CITY           SKY/WX    TMP DP  RH WIND       PRES   REMARKS
BLANDING       MOCLDY    52  48  86 N6        30.04R
BRYCE CANYON   CLOUDY    45  42  89 N6        30.02S
CEDAR CITY     CLOUDY    54  41  61 SE7       29.94R
DELTA          CLOUDY    60  45  57 N18       29.90R
HANKSVILLE     MOCLDY    61  43  51 CALM      29.88S
MILFORD        CLOUDY    58  41  53 S8        29.89R
MOAB/CYNLANDS  PTCLDY    61  47  59 W6        29.85R
PRICE          LGT RAIN  57  43  59 W9        29.93R
ST GEORGE      CLOUDY    68  43  40 NW18G29   29.89R

$$

REGIONAL REPORTS     COLORADO/ARIZONA

CITY           SKY/WX    TMP DP  RH WIND       PRES   REMARKS
CRAIG, CO      MOCLDY    53  40  61 SE6       30.01R
GRAND JUNCTION CLOUDY    62  42  47 S17G23    29.91R
RIFLE          MOCLDY    55  45  68 S3        29.95R
MONTROSE       CLOUDY    52  46  80 S9        29.99R
CORTEZ         CLOUDY    52  46  80 N5        29.98R
PAGE, AZ       MOCLDY    66  42  41 W6        29.85R
GRAND CANYON   MOCLDY    44  41  89 CALM      30.00R
KINGMAN        CLOUDY    59  44  57 S8        29.90F
FLAGSTAFF      PTCLDY    47  40  76 S8        30.01R

$$

REGIONAL REPORTS    NEVADA/IDAHO/WYOMING

CITY           SKY/WX    TMP DP  RH WIND       PRES   REMARKS
LAS VEGAS, NV  CLOUDY    72  43  35 E7        29.78S
ELY            MOCLDY    55  33  43 N3        29.96R
ELKO           CLOUDY    57  40  52 SW3       29.92R
POCATELLO, ID  PTCLDY    63  36  36 S8        29.86R
BURLEY         CLOUDY    61  40  45 W5        29.83R
EVANSTON, WY   CLOUDY    50  38  63 E6        30.02R
ROCK SPRINGS   CLOUDY    52  37  56 W13       30.03R
KEMMERER       CLOUDY    46  37  71 NE8G22    30.04S

$$



USA.gov is the U.S. government's official web portal to all federal, state and local government web resources and services.